STARLINK-32153, 60330

Orbit data source: Space-Track

STARLINK-32153, 60330 is a payload satellite owned by SpaceX/Seattle (US) in LEO that was launched on Fri, 02 Aug 2024 UTC via an FALCON 9 launch vehicle from the Air Force Eastern Test Range (AFETR). Payload-class satellites include a variety of spacecraft equipped with specific instruments for various scientific and technological missions. These include communications satellites like Starlink; space stations such as the ISS; scientific satellites like the Hubble; Earth observation satellites from companies like Planet Labs, Umbra, and HawkEye 360; GPS; miniature CubeSats for education and research; and military/defense satellites.

Loading next visibility...
Identifier
60330, 2024-136B
Orbit
LEO
Last TLE update
18 hours ago
Origin
Manufacturer
SpaceX/Seattle
Mission
Operational Commercial Communications
Bus & Motor
STARLINK V2M, Unknown motor
Mass
730 kg wet, ~700 kg dry
Launch date (UTC)
2024-08-02 (11 months ago)
Launch vehicle
FALCON 9
Launch site
Air Force Eastern Test Range (AFETR)
Object type
Payload
Rocket body
Debris
Shape & HBR
Box + 2 Pan, 29 m
Radar Cross Section
33.884 m², Large (>1 m²)

Expand to show TLE details & history

TLE from 18 hours ago
0 STARLINK-32153
1 60330U 24136B   25181.66214745 -.00003144  00000-0 -94130-4 0  9995
2 60330  53.1592 166.6231 0001971  86.8314 273.2913 15.30169199 51076
Epoch: 2025-06-30T15:53Z
TLE epoch observation values (Epoch: 2025-06-30T15:53:29.539Z)
Latitude
0.00003°
Longitude
9.28131°
Altitude
476.129 km
Speed
7.629 km/s
True Right ascension
11h 06m 29s
True Declination
0° 00' 00"
Sunlit
Object was in daylight at epoch
Visualization orbit readout
Latitude
53.24217°
Longitude
99.93422°
Altitude
480.529 km
Speed
7.632 km/s
Apparent Right ascension
12h 35m 41s
Apparent Declination
17° 00' 21"
Sunlit
Object is in daylight
Visualization observer readout
Local Sidereal Time
21:10:30
Azimuth
309.174° NW
Elevation
-15.723°
Doppler factor
1
Orbital elements
Apogee altitude
476.914 km
Perigee altitude
474.213 km
Semi-major axis
6,853.701 km
Eccentricity
0.0002
Inclination
53.1592°
RAAN
166.6231°
Arg. of periapsis
86.8314°
True anomaly
Unknown
Mean anomaly
273.2913°
Eccentric anomaly
Unknown
Mean motion
3.82521 °/min
Orbital period
94.11 mins
BSTAR
-0.00009413
Loading maneuver chart data...
Loading SW <> Apogee altitude chart data...
Loading historical data...
Loading historical data...
Loading historical data...
Loading historical data...
Loading historical data...
Loading historical data...
Loading historical data...

STARLINK-32153 Visibility forecast

Observer location: undefined°, undefined°

Span
Click to sort rows by Start time (UTC) header in descending order
Start Az.
Max El. time (UTC)
Max El. Az.
Max El.
End time (UTC)
End Az.
5 mins2025-07-01 09:41:12.787Z274.506° WNW2025-07-01 09:43:12.787Z235.568° WSW20.169°2025-07-01 09:46:12.787Z179.665° S
5 mins2025-07-02 00:59:12.787Z195.137° SSW2025-07-02 01:01:12.787Z138.518° SSE33.691°2025-07-02 01:04:12.787Z65.821° ENE
5 mins2025-07-02 02:37:12.787Z282.659° WNW2025-07-02 02:39:12.787Z328.343° NNW24.531°2025-07-02 02:42:12.787Z29.088° NE
5 mins2025-07-02 07:34:12.787Z335.108° NNW2025-07-02 07:36:12.787Z32.342° NE31.963°2025-07-02 07:39:12.787Z100.543° ESE
4 mins2025-07-02 09:12:12.787Z271.222° WNW2025-07-02 09:14:12.787Z223.442° SW23.001°2025-07-02 09:16:12.787Z181.598° SSW
|